Location: Chimay
(50.0486°N, 4.3171°E)
Time: 08:22:48
(UTC+00:00)

Cosmos 2322 Rocket - Pass Details

Date: 08 August 2020
Orbit: 831 x 852 km, 71.0° (Epoch: 26 September)

Event Time Altitude Azimuth Distance (km) Brightness Sun altitude
Rises 20:11:24 0° 333° (NNW) 3,415 6.7 -8.8°
Reaches altitude 10° 20:14:28 10° 349° (N) 2,480 5.4 -9.1°
Maximum altitude 20:18:46 21° 38° (NE) 1,804 4.0 -9.7°
Drops below altitude 10° 20:23:03 10° 87° (E) 2,481 4.2 -10.2°
Enters shadow 20:24:05 - 94° (E) 2,775 4.4 -10.3°
